Dewpoint
1 1 0 -0 -1 -1 -1 -2 -3 -1 -2 -2 -2 -3 -3 -3 -3 -3 -3 -2 -2 -2 -1 -1 -1 -2 -15 -23 -25 -26 -30 -30 -29 -29 -28 -27 -28 -26
-1 1 1 0 0 0 0 -0 -1 -0 -0 0 -0 -1 -2 -2 -2 -1 -1 -1 -1 -1 -1 -1 -1 -2 -14 -23 -23 -27 -29 -28 -27 -27 -26 -26 -27 -25
-2 -2 -1 -0 0 1 1 1 1 1 1 1 1 1 1 -0 -1 -1 -1 -1 -0 -1 -1 -0 -1 -3 -16 -21 -22 -27 -27 -27 -26 -26 -26 -26 -25 -22
0 -0 -2 -2 -1 -2 -0 1 1 2 2 1 2 2 2 2 0 -0 -0 -0 -0 -0 -0 -0 -1 -6 -19 -16 -24 -26 -26 -25 -25 -25 -25 -25 -24 -23
1 1 0 -0 -0 -1 -1 0 1 2 3 2 3 3 3 1 1 -0 -0 -0 -0 -0 -0 -1 -2 -13 -18 -21 -25 -26 -25 -25 -25 -25 -24 -23 -22 -23
1 1 1 2 1 -0 -0 -1 0 2 3 3 3 3 2 1 0 -1 -1 -1 -1 -0 -1 -2 -5 -18 -15 -22 -25 -25 -24 -24 -25 -24 -23 -22 -21 -21
4 3 2 2 2 1 1 1 1 1 1 2 3 3 1 -0 -1 -2 -1 -1 -1 -2 -0 -2 -13 -14 -17 -23 -24 -24 -24 -25 -24 -23 -22 -21 -19 -19
7 7 6 5 4 3 3 4 4 4 3 3 2 1 0 -1 -2 -2 -1 -1 -1 -0 -2 -6 -11 -10 -22 -24 -23 -24 -24 -24 -23 -22 -21 -19 -19 -19
7 7 6 6 5 5 5 5 4 4 3 1 1 -0 -2 -2 -1 -2 -0 1 0 -3 -4 -5 -9 -19 -23 -22 -22 -24 -24 -23 -22 -21 -19 -19 -19 -19
6 6 6 6 6 5 5 4 4 2 2 0 -0 -1 -1 -1 -0 0 0 -1 -3 -2 -6 -7 -13 -22 -22 -22 -23 -25 -22 -21 -21 -20 -19 -19 -19 -19
6 6 6 5 5 5 4 4 3 2 0 1 0 -1 -0 -0 -0 -2 -2 -1 -4 -8 -6 -14 -21 -22 -22 -24 -25 -22 -21 -20 -20 -20 -20 -20 -19 -19
5 5 5 5 4 4 4 3 2 1 1 1 -0 -2 -2 -2 -1 -0 -3 -7 -8 -5 -12 -19 -21 -22 -24 -24 -23 -21 -20 -20 -20 -21 -20 -20 -20 -20
5 5 5 5 4 3 2 2 2 2 1 -0 -0 -2 -2 -0 -1 -6 -5 -3 -5 -14 -20 -20 -21 -23 -23 -23 -23 -21 -21 -21 -21 -21 -21 -21 -21 -19
4 4 4 3 3 2 2 2 2 1 1 -0 -1 -1 -1 -2 -3 -3 -4 -12 -18 -19 -20 -21 -22 -22 -21 -21 -22 -22 -22 -22 -21 -21 -21 -22 -20 -19
3 3 2 2 2 2 2 1 1 0 -0 -1 -0 -1 -2 -3 -3 -9 -17 -18 -19 -20 -21 -22 -21 -20 -20 -20 -21 -22 -22 -22 -20 -19 -19 -19 -19 -18
2 2 1 1 1 1 -0 -0 0 -0 -1 -1 -1 -2 -3 -5 -14 -17 -18 -19 -20 -21 -21 -21 -20 -20 -20 -21 -21 -22 -19 -18 -19 -17 -18 -18 -18 -18
1 1 1 0 -1 -2 -2 -2 -2 -2 -2 -2 -3 -4 -7 -13 -16 -17 -18 -19 -21 -21 -20 -20 -20 -21 -21 -22 -23 -19 -19 -19 -17 -16 -16 -17 -19 -19
-0 -0 0 -0 -1 -2 -3 -3 -3 -2 -3 -4 -4 -5 -8 -15 -17 -18 -19 -20 -20 -20 -19 -20 -21 -22 -22 -23 -21 -20 -18 -16 -16 -16 -16 -17 -20 -20
-2 -1 -1 -1 -2 -3 -3 -3 -3 -4 -4 -5 -5 -7 -10 -12 -17 -18 -19 -20 -19 -19 -20 -20 -21 -22 -23 -24 -21 -18 -16 -16 -16 -17 -18 -18 -18 -19
-2 -2 -3 -3 -3 -4 -4 -4 -4 -5 -5 -6 -6 -7 -9 -16 -18 -19 -19 -19 -19 -19 -19 -20 -21 -22 -23 -21 -20 -19 -15 -15 -15 -17 -18 -18 -18 -17
-3 -4 -4 -3 -4 -4 -4 -4 -5 -5 -6 -7 -7 -8 -10 -14 -17 -19 -19 -19 -19 -19 -19 -19 -21 -22 -21 -19 -17 -17 -17 -16 -16 -17 -17 -17 -15 -14
-4 -4 -4 -5 -4 -5 -5 -5 -6 -6 -7 -7 -8 -9 -9 -12 -18 -18 -17 -18 -18 -18 -18 -20 -21 -21 -19 -16 -15 -15 -16 -18 -18 -18 -17 -16 -12 -12
-4 -5 -5 -5 -5 -5 -5 -6 -6 -7 -7 -8 -9 -10 -13 -13 -10 -14 -18 -18 -18 -17 -19 -21 -20 -18 -16 -14 -14 -15 -16 -15 -16 -18 -18 -14 -12 -12
Wind_Speed
29 27 26 25 26 24 22 20 16 17 19 18 20 21 24 24 22 21 22 22 21 20 17 16 16 16 16 16 16 17 16 16 17 18 18 19 21 22
31 30 29 27 26 27 25 23 22 20 18 16 17 17 17 21 23 22 23 23 22 20 19 17 17 17 17 16 17 17 18 17 18 18 20 21 22 22
31 32 32 31 30 29 28 26 25 23 21 18 18 16 19 18 20 23 25 24 22 21 20 19 19 18 17 18 18 18 17 18 19 20 22 23 22 22
31 31 31 30 32 31 30 29 27 26 24 23 23 22 22 21 19 22 24 24 23 23 21 19 19 18 18 20 19 18 18 18 20 22 23 23 22 21
31 31 30 29 32 31 31 29 28 27 25 25 22 23 24 23 22 23 23 24 24 22 20 19 20 17 19 20 19 18 18 19 21 22 22 22 21 23
29 30 30 31 31 31 32 31 28 26 24 24 25 27 26 25 23 24 25 27 24 22 21 20 18 17 20 19 19 19 18 20 22 21 20 21 23 23
31 33 35 33 29 31 31 31 28 27 29 31 28 28 28 27 28 26 26 23 20 22 21 19 18 19 18 19 19 19 19 21 21 19 20 23 23 24
31 36 36 36 34 34 33 34 35 34 30 28 27 30 32 29 26 25 24 23 24 24 20 18 18 19 17 18 18 19 19 20 18 20 22 23 24 25
24 28 31 33 35 35 33 30 28 27 26 24 27 29 28 24 22 22 22 25 22 19 17 16 18 17 17 16 17 20 19 16 18 21 22 23 25 26
20 20 20 24 26 28 28 27 27 25 23 22 21 21 20 20 20 21 19 20 20 20 17 18 18 16 15 15 18 19 13 17 18 20 21 23 25 25
19 19 19 19 19 22 25 25 25 22 23 20 20 20 20 21 21 21 22 21 17 19 18 17 16 16 14 16 15 10 15 16 17 20 21 23 24 26
19 18 17 17 18 20 22 22 24 24 22 21 21 21 22 21 22 23 17 16 20 20 15 15 14 12 9 11 7 14 15 14 18 20 21 22 24 28
14 14 15 16 18 18 20 23 22 21 20 22 22 23 23 22 18 17 18 19 18 18 13 11 11 12 12 13 11 12 14 17 18 18 19 22 23 25
11 12 13 16 15 18 21 24 23 23 23 22 23 23 22 20 20 18 15 15 14 14 13 12 12 12 13 14 14 13 14 16 18 18 20 22 23 23
11 11 12 12 15 19 21 24 26 26 25 24 23 22 20 17 15 14 15 14 12 11 11 10 10 11 12 14 18 19 21 16 15 22 22 24 26 25
15 15 11 12 14 15 17 24 25 25 24 25 24 21 18 15 16 15 13 12 11 10 9 9 10 11 12 15 18 16 14 16 19 21 24 25 24 22
11 12 14 17 19 19 23 25 25 26 26 25 22 19 17 16 15 13 12 11 10 8 7 8 9 11 13 16 16 10 13 16 19 24 27 29 26 26
10 14 16 19 22 24 27 29 28 28 27 24 21 17 15 15 14 13 11 10 8 7 7 7 9 11 12 11 12 11 15 20 21 22 23 30 32 28
12 14 17 20 25 27 29 31 30 27 24 21 19 17 16 15 14 12 10 9 7 6 6 7 10 12 14 15 12 10 18 19 21 22 26 29 32 32
13 14 19 25 29 30 32 32 28 24 21 19 18 17 15 15 13 12 10 8 7 5 5 8 10 12 12 14 17 14 15 18 22 26 29 30 30 30
17 15 18 25 29 30 30 28 26 22 21 19 18 16 15 13 12 11 9 7 6 5 7 8 10 11 11 12 14 14 8 13 18 25 28 30 35 40
16 17 20 24 28 28 27 26 23 22 22 20 18 17 16 14 12 9 8 8 5 7 8 10 9 10 9 10 13 14 15 15 15 18 20 22 29 30
17 19 20 23 24 24 25 25 24 22 21 19 18 16 15 13 12 11 9 6 7 7 8 8 9 8 7 9 12 13 15 18 23 23 17 22 27 27
Wind_Direction
226 226 227 226 223 227 232 233 226 217 231 239 242 239 242 249 250 246 244 243 246 255 263 272 282 291 297 300 305 305 305 305 306 304 308 313 316 314
226 229 231 230 229 230 233 234 242 249 247 243 250 248 246 247 251 248 243 243 248 256 261 269 277 286 293 302 301 300 298 302 303 309 311 312 314 317
230 231 233 235 236 238 238 241 241 244 248 245 242 248 251 253 250 247 247 247 249 254 259 266 274 285 293 297 296 294 298 303 308 310 311 314 317 318
234 234 235 235 239 241 243 243 242 243 242 240 248 248 248 256 256 249 245 249 250 255 261 267 274 281 290 293 293 295 302 306 309 313 315 313 312 313
238 240 240 238 237 239 242 242 241 242 241 244 252 254 256 246 252 247 245 242 246 252 260 264 269 280 286 290 292 299 304 307 311 311 311 312 315 317
240 243 243 242 242 241 242 244 243 240 237 244 258 257 250 250 248 244 241 239 243 249 253 262 271 280 285 289 293 300 303 306 309 310 311 313 317 318
239 244 243 243 242 244 243 242 237 235 244 249 251 249 252 243 247 243 238 238 240 248 262 264 271 279 286 285 293 297 305 308 309 308 312 314 316 317
250 248 250 247 242 238 240 246 249 246 247 239 239 246 248 248 244 240 232 225 241 255 260 266 272 281 279 286 291 298 304 305 304 310 313 314 316 315
250 253 249 251 249 251 251 244 243 244 235 237 246 251 249 250 241 232 234 246 248 250 262 271 274 277 279 286 291 300 304 304 309 312 313 313 313 313
255 260 253 250 252 244 242 240 236 226 231 230 238 242 242 245 240 245 250 237 241 256 261 269 272 275 280 285 291 297 298 308 310 311 312 312 312 312
246 249 254 252 247 244 235 234 223 225 219 225 231 231 231 232 231 231 232 239 245 249 258 262 267 276 282 287 287 290 309 309 309 310 312 314 314 313
253 248 243 242 238 237 229 223 222 216 221 222 216 215 219 218 229 241 235 227 237 253 251 253 265 278 294 290 283 305 306 305 308 313 315 316 317 317
239 242 244 247 245 227 224 226 226 226 219 219 221 217 227 239 238 228 235 244 243 241 253 261 272 286 289 292 301 308 311 313 314 313 315 315 319 325
246 247 247 247 241 230 227 228 228 222 226 221 220 227 235 230 226 234 233 234 235 241 253 266 282 291 297 305 312 314 312 315 318 320 319 320 325 326
242 245 246 246 243 238 234 233 225 219 218 220 224 227 226 228 221 218 221 225 231 241 256 271 282 289 300 312 314 327 324 325 323 327 326 328 333 336
238 232 236 239 241 237 223 220 224 219 220 221 223 217 213 205 210 217 222 226 233 244 257 270 281 292 302 310 313 325 319 319 325 329 330 331 337 339
249 235 223 221 217 209 210 215 211 212 214 215 210 204 198 205 211 217 222 232 242 251 258 269 284 300 309 315 316 322 322 326 330 335 334 330 337 343
236 228 224 224 219 212 211 207 207 209 208 205 202 199 200 207 215 219 224 233 247 256 270 290 301 305 308 316 324 333 333 336 336 334 334 334 334 345
232 227 225 221 216 214 213 210 205 203 203 203 201 191 196 208 213 218 226 236 242 258 285 296 306 314 320 326 340 344 338 332 331 336 339 336 333 339
233 234 230 221 216 214 211 210 205 202 203 203 199 193 196 208 209 214 222 233 247 264 291 306 310 317 326 328 330 347 345 341 339 338 340 334 335 339
232 232 235 228 222 219 217 211 207 206 204 201 196 190 194 203 213 220 219 225 244 277 302 310 312 316 320 319 324 337 0 350 341 339 342 340 345 339
229 231 232 229 227 223 214 206 202 201 198 198 196 190 196 206 209 209 222 229 259 295 311 317 313 313 316 325 333 339 345 349 348 346 353 352 347 333
227 230 231 229 223 216 209 202 200 198 199 198 192 186 190 199 209 217 216 245 266 292 310 316 319 316 326 333 333 341 342 349 349 349 356 354 355 353
Height
1539 1543 1546 1549 1553 1555 1559 1561 1563 1565 1566 1568 1570 1571 1571 1574 1574 1577 1578 1580 1581 1582 1582 1583 1583 1582 1582 1581 1579 1577 1576 1574 1571 1569 1567 1564 1561 1559
1534 1538 1541 1544 1548 1551 1554 1557 1559 1561 1563 1563 1564 1568 1568 1570 1570 1572 1574 1575 1577 1578 1579 1579 1578 1579 1578 1576 1575 1573 1572 1570 1568 1565 1563 1560 1556 1554
1529 1533 1536 1539 1542 1546 1550 1552 1555 1557 1559 1559 1561 1563 1565 1565 1566 1566 1567 1570 1572 1572 1573 1573 1574 1574 1574 1572 1570 1569 1567 1566 1564 1561 1558 1555 1552 1549
1523 1527 1530 1533 1536 1539 1543 1546 1549 1553 1554 1555 1556 1558 1560 1561 1562 1562 1563 1565 1567 1568 1569 1569 1569 1569 1568 1566 1565 1565 1563 1561 1559 1556 1553 1550 1547 1545
1518 1521 1525 1527 1530 1532 1536 1540 1543 1546 1548 1551 1552 1554 1556 1555 1555 1557 1558 1560 1561 1562 1564 1565 1564 1564 1563 1563 1562 1560 1557 1555 1553 1551 1549 1546 1543 1540
1512 1515 1518 1522 1524 1526 1530 1533 1535 1539 1541 1545 1545 1548 1551 1549 1551 1552 1553 1555 1555 1558 1558 1559 1559 1559 1559 1558 1557 1555 1553 1550 1548 1546 1543 1540 1537 1534
1503 1507 1511 1514 1517 1521 1523 1526 1527 1531 1532 1536 1537 1542 1543 1543 1544 1546 1548 1552 1552 1553 1553 1554 1555 1555 1555 1554 1552 1551 1548 1545 1543 1541 1538 1535 1532 1529
1496 1500 1503 1506 1509 1511 1516 1517 1521 1522 1523 1526 1531 1534 1535 1537 1539 1542 1544 1546 1547 1548 1548 1551 1550 1551 1550 1549 1547 1545 1543 1541 1538 1536 1533 1530 1527 1523
1490 1493 1496 1499 1502 1504 1506 1509 1512 1514 1516 1521 1524 1528 1532 1533 1535 1538 1540 1541 1541 1544 1546 1546 1546 1546 1545 1544 1542 1540 1538 1536 1534 1531 1529 1525 1522 1518
1485 1487 1490 1493 1495 1496 1499 1501 1505 1507 1511 1515 1519 1522 1527 1531 1531 1535 1535 1538 1538 1540 1542 1541 1541 1541 1541 1539 1538 1536 1534 1532 1529 1527 1525 1521 1517 1512
1480 1482 1485 1487 1489 1492 1495 1496 1499 1504 1506 1510 1514 1518 1522 1527 1528 1529 1530 1532 1535 1537 1537 1537 1536 1536 1537 1535 1533 1532 1530 1527 1525 1523 1520 1515 1511 1506
1475 1476 1480 1483 1485 1488 1490 1493 1497 1500 1502 1505 1510 1514 1519 1522 1522 1524 1524 1529 1532 1533 1532 1533 1532 1533 1532 1530 1529 1528 1526 1523 1521 1518 1514 1510 1506 1500
1471 1473 1475 1478 1481 1484 1488 1489 1492 1496 1498 1503 1508 1513 1516 1517 1517 1520 1522 1525 1527 1528 1528 1528 1528 1528 1529 1527 1525 1524 1521 1518 1516 1513 1510 1506 1501 1496
1468 1469 1472 1475 1476 1479 1483 1486 1489 1492 1496 1501 1507 1508 1512 1512 1514 1517 1519 1521 1523 1525 1525 1524 1524 1524 1524 1522 1520 1520 1517 1514 1510 1508 1505 1500 1496 1491
1463 1466 1469 1470 1471 1475 1477 1482 1486 1489 1493 1499 1503 1505 1507 1510 1512 1514 1516 1518 1519 1521 1521 1521 1521 1521 1519 1516 1515 1513 1509 1509 1505 1502 1499 1494 1489 1484
1462 1464 1465 1466 1468 1471 1472 1476 1482 1486 1491 1496 1499 1501 1504 1507 1510 1512 1513 1515 1517 1518 1518 1518 1518 1517 1515 1513 1511 1510 1508 1505 1502 1498 1493 1489 1485 1480
1460 1461 1461 1462 1463 1467 1469 1474 1479 1483 1488 1492 1496 1499 1502 1505 1507 1510 1511 1512 1514 1515 1516 1516 1514 1513 1511 1509 1508 1506 1504 1502 1498 1492 1488 1482 1479 1475
1457 1458 1458 1459 1462 1464 1468 1472 1476 1480 1484 1489 1493 1496 1499 1503 1505 1507 1508 1509 1511 1512 1512 1512 1510 1509 1508 1507 1504 1503 1500 1496 1493 1489 1485 1478 1471 1470
1454 1455 1456 1457 1459 1462 1466 1470 1474 1478 1483 1487 1490 1494 1498 1501 1503 1505 1506 1507 1507 1508 1509 1508 1507 1506 1504 1502 1502 1499 1496 1494 1489 1485 1480 1475 1468 1462
1451 1453 1454 1455 1456 1459 1463 1467 1472 1478 1482 1485 1488 1492 1496 1499 1500 1501 1503 1505 1506 1506 1506 1505 1504 1502 1501 1500 1497 1497 1494 1489 1485 1480 1475 1470 1465 1459
1446 1450 1453 1454 1455 1457 1461 1465 1471 1475 1480 1484 1487 1490 1494 1497 1499 1500 1502 1502 1503 1504 1503 1503 1502 1500 1498 1497 1496 1494 1492 1489 1484 1478 1472 1464 1456 1448
1441 1445 1449 1452 1454 1456 1459 1463 1468 1472 1476 1481 1485 1489 1492 1495 1497 1499 1500 1501 1501 1501 1501 1501 1499 1498 1496 1493 1493 1491 1488 1486 1484 1479 1474 1468 1459 1447
1438 1442 1445 1449 1453 1456 1458 1461 1464 1470 1474 1478 1482 1487 1491 1493 1495 1497 1498 1499 1499 1499 1498 1498 1497 1495 1493 1491 1490 1488 1486 1481 1478 1474 1470 1465 1459 1452